Wind_Speed
37 38 39 40 41 41 42 43 43 44 45 46 47 48 49 49 49 49 50 51 50 50 50 50 51 51 52 53 54 55 56 56 56 56 57 56 56 57
38 39 40 41 41 42 42 43 44 45 46 46 47 48 47 47 47 48 48 49 49 49 48 49 49 50 50 50 51 51 51 51 51 52 52 52 52 52
39 40 40 41 42 43 43 44 44 45 45 45 45 44 45 45 45 45 46 46 46 46 46 46 47 47 47 47 47 46 46 46 46 46 46 46 48 49
39 39 40 40 41 42 42 43 43 43 43 43 43 42 42 43 42 42 43 43 43 43 43 43 43 43 43 42 42 42 42 41 41 41 41 41 42 42
38 38 39 40 40 41 41 41 41 41 41 41 40 40 40 41 41 41 41 40 40 39 39 39 39 38 37 37 37 37 37 37 37 36 36 36 36 37
36 37 37 38 38 39 39 39 39 38 39 38 37 38 38 39 39 38 37 36 36 35 35 34 34 33 33 34 34 34 33 33 33 33 33 32 32 33
35 35 36 36 36 36 36 36 36 36 35 35 35 35 36 36 35 35 34 33 33 32 32 32 31 31 31 31 31 31 31 31 31 30 30 30 31 31
33 33 33 33 33 33 33 33 32 32 31 31 31 32 32 32 32 32 31 31 30 30 30 29 28 28 28 28 28 28 29 29 29 29 29 29 30 30
30 30 30 30 30 30 29 28 28 28 28 28 29 29 29 29 29 29 28 27 27 26 25 25 25 25 25 26 27 27 27 28 28 28 29 29 29 29
27 27 27 26 26 25 25 25 25 25 25 26 26 26 26 26 25 25 24 24 23 22 21 21 22 23 24 24 25 25 26 27 27 27 27 28 28 27
24 24 23 23 23 23 23 23 23 23 23 23 23 24 23 23 23 22 21 21 20 20 19 19 20 21 23 23 24 24 25 26 26 26 26 27 26 26
21 22 22 22 22 21 21 22 22 21 21 21 21 21 21 20 19 18 18 18 17 17 17 18 18 19 21 22 23 24 25 26 25 25 26 26 25 24
20 20 20 20 20 20 20 20 20 19 19 19 20 20 19 18 16 16 16 16 15 15 16 17 18 19 20 22 23 24 24 24 24 25 25 24 24 23
17 17 17 17 17 17 17 18 18 17 18 18 18 18 17 16 15 15 15 15 14 14 15 16 17 18 20 21 22 23 23 23 24 24 25 24 23 22
15 15 15 15 15 15 16 16 16 16 16 16 16 15 14 14 14 14 14 13 12 13 14 15 17 18 19 20 22 22 22 22 23 24 24 23 23 22
14 14 14 13 13 14 14 14 14 14 14 14 14 13 13 12 12 12 12 12 12 13 14 15 16 18 19 20 21 22 22 22 23 23 24 23 23 23
12 12 12 12 13 13 13 13 13 13 13 13 12 12 12 11 11 11 10 11 11 12 13 14 15 17 18 20 21 22 22 23 23 23 24 24 24 24
11 11 12 12 13 13 12 12 12 12 11 11 11 11 10 10 10 10 9 10 11 12 12 14 15 17 18 20 21 22 22 23 23 24 25 25 25 25
11 11 12 12 12 12 12 12 11 11 10 10 10 9 9 9 9 9 8 9 10 11 12 14 15 16 17 19 20 21 22 23 24 24 25 25 25 25
10 11 11 11 11 11 11 10 10 9 9 9 8 8 8 8 8 8 8 8 10 11 12 14 15 16 17 18 20 21 23 24 25 25 25 26 26 26
10 10 10 10 10 10 10 9 9 8 8 7 7 7 7 7 7 7 8 9 10 11 13 14 15 16 18 19 20 21 23 24 25 26 26 27 27 27
9 9 9 10 10 9 9 8 8 7 7 6 7 6 7 7 7 8 9 10 11 12 13 14 16 17 18 19 20 21 23 24 25 25 26 27 27 27
10 10 10 9 9 8 8 8 7 7 6 6 7 7 7 8 8 9 10 11 12 13 14 15 16 18 19 20 21 22 23 24 25 26 26 26 27 27
Wind_Direction
280 282 283 284 284 285 285 286 286 286 287 287 287 288 288 288 287 287 288 288 289 289 289 288 287 287 286 286 286 286 286 285 284 282 279 275 274 271
280 281 283 283 283 285 286 286 287 287 288 288 289 289 289 289 289 290 290 291 291 291 290 290 289 288 288 288 288 288 288 287 285 283 281 277 276 275
281 282 283 284 284 286 286 286 287 288 288 289 290 290 290 291 291 292 293 293 293 293 292 293 292 292 291 291 291 292 292 292 291 289 287 285 280 277
282 283 284 285 286 286 287 287 288 289 289 289 290 291 292 292 293 294 294 294 295 296 296 295 295 294 294 294 295 295 296 296 295 293 291 288 286 283
283 284 285 287 287 288 288 289 289 290 291 291 292 293 293 294 295 295 296 296 297 297 298 298 298 298 298 299 300 300 300 300 299 297 294 292 290 288
285 286 288 289 289 289 290 289 290 291 292 292 293 294 295 296 297 298 299 299 300 301 302 302 302 302 302 303 303 304 304 303 303 302 300 297 295 292
286 287 288 289 290 291 292 291 291 292 293 294 295 295 297 298 299 300 301 302 303 303 304 304 304 305 306 307 308 308 308 307 307 306 305 301 298 295
288 289 289 290 292 293 293 293 294 295 296 297 298 299 300 301 301 302 302 302 303 304 305 305 306 309 311 312 312 312 312 312 310 309 308 306 303 299
290 290 291 293 294 295 295 296 299 301 302 302 303 304 304 305 305 305 306 306 306 307 308 309 310 313 315 316 316 316 317 317 315 313 311 310 307 304
290 292 292 294 296 298 299 300 302 304 306 306 306 307 308 308 307 308 308 309 310 311 312 314 315 318 320 321 322 323 324 323 322 320 318 317 315 311
292 292 294 296 298 300 301 303 305 306 307 308 310 310 311 310 309 309 311 312 314 316 317 319 321 323 325 328 329 330 330 330 329 328 327 325 322 318
294 295 296 298 300 302 304 306 307 309 309 311 314 316 316 316 314 315 316 318 319 322 324 326 327 329 331 332 333 334 334 335 335 335 334 333 331 328
296 298 300 301 303 305 307 309 310 312 314 316 318 320 320 320 321 321 322 324 326 329 330 331 333 334 336 337 339 339 340 341 342 342 342 341 341 339
301 303 305 307 308 310 311 312 314 315 317 320 322 324 325 325 326 327 328 330 332 333 335 336 339 341 342 344 345 346 347 348 349 349 350 350 350 350
305 308 310 311 313 314 316 317 318 319 321 323 326 328 329 329 329 330 332 334 335 336 339 342 345 347 348 350 351 353 354 355 356 357 359 360 360 0
312 313 315 316 319 320 321 322 323 323 324 327 330 331 331 331 333 335 337 339 340 341 345 348 350 353 355 357 359 1 3 3 4 5 8 9 9 9
316 318 320 322 323 323 323 324 325 326 328 331 333 334 335 337 339 341 343 345 347 349 352 355 357 359 2 5 6 8 10 11 12 14 15 17 17 18
321 322 323 324 324 325 327 329 330 331 332 334 336 338 341 344 346 347 348 350 354 358 2 4 5 6 9 11 14 15 17 19 20 21 22 22 24 25
326 327 326 326 327 328 330 332 334 335 336 337 339 342 345 348 352 355 357 1 6 11 14 15 15 15 17 19 21 23 25 26 27 27 27 27 29 30
332 332 333 335 335 335 335 336 337 338 341 344 347 351 354 359 4 10 14 18 21 24 24 24 24 25 26 28 30 31 32 32 32 33 32 32 33 34
339 339 340 342 341 341 341 343 346 347 351 356 2 6 11 17 25 31 33 34 33 33 33 33 33 34 35 36 36 36 36 36 36 35 35 35 35 35
353 353 352 352 351 352 352 354 357 2 8 13 19 25 32 39 45 45 42 42 43 43 42 42 42 42 42 41 40 40 39 38 38 37 36 36 36 37
3 2 1 1 2 3 5 8 13 19 27 34 40 47 52 57 58 54 51 52 53 52 50 49 48 47 45 44 43 42 42 40 40 39 38 37 36 36
Height
5781 5779 5777 5774 5772 5770 5768 5765 5763 5760 5757 5753 5750 5747 5743 5740 5736 5732 5728 5724 5720 5716 5712 5708 5704 5700 5696 5692 5687 5682 5678 5673 5668 5664 5661 5658 5656 5653
5770 5768 5766 5764 5762 5759 5757 5754 5751 5749 5745 5742 5738 5735 5731 5727 5724 5720 5715 5711 5707 5703 5698 5694 5690 5686 5681 5677 5672 5667 5662 5657 5652 5647 5643 5640 5637 5635
5760 5758 5756 5754 5751 5749 5746 5743 5740 5737 5733 5730 5726 5723 5719 5716 5712 5708 5703 5699 5695 5691 5686 5682 5677 5673 5668 5663 5658 5653 5648 5643 5637 5633 5629 5625 5622 5619
5750 5748 5746 5743 5741 5738 5735 5732 5729 5725 5722 5719 5715 5712 5708 5704 5700 5697 5692 5688 5684 5679 5675 5670 5665 5660 5656 5651 5646 5641 5636 5631 5626 5622 5617 5614 5610 5606
5740 5738 5736 5733 5730 5728 5724 5721 5718 5715 5711 5708 5704 5701 5697 5693 5690 5686 5682 5677 5673 5668 5664 5659 5654 5650 5645 5640 5636 5631 5626 5621 5617 5612 5607 5603 5599 5596
5730 5728 5726 5723 5720 5717 5714 5711 5708 5704 5701 5697 5694 5691 5687 5683 5679 5676 5672 5667 5663 5659 5654 5650 5645 5641 5636 5632 5627 5622 5617 5612 5608 5603 5598 5594 5590 5586
5720 5718 5716 5713 5710 5707 5704 5701 5698 5695 5691 5688 5684 5681 5677 5674 5670 5666 5662 5658 5654 5650 5646 5642 5637 5633 5629 5624 5619 5614 5609 5604 5600 5595 5590 5586 5582 5578
5711 5709 5706 5704 5701 5698 5695 5692 5689 5686 5682 5679 5676 5672 5668 5665 5661 5658 5654 5651 5647 5643 5639 5635 5631 5627 5622 5617 5612 5608 5603 5598 5593 5588 5583 5578 5574 5569
5702 5700 5698 5695 5693 5690 5687 5684 5681 5677 5674 5671 5668 5664 5661 5657 5654 5650 5647 5644 5640 5636 5632 5628 5625 5621 5616 5612 5607 5602 5597 5591 5586 5581 5576 5571 5566 5561
5694 5692 5690 5688 5685 5682 5680 5677 5674 5671 5667 5664 5661 5658 5654 5650 5647 5644 5641 5638 5634 5631 5627 5624 5620 5616 5611 5607 5602 5597 5591 5586 5580 5575 5569 5564 5559 5553
5687 5685 5683 5681 5679 5676 5673 5671 5667 5664 5661 5658 5655 5652 5648 5645 5642 5639 5636 5633 5629 5626 5623 5619 5616 5612 5607 5603 5598 5592 5587 5581 5576 5570 5564 5558 5553 5547
5681 5679 5677 5675 5672 5670 5667 5664 5662 5659 5656 5653 5650 5647 5644 5641 5637 5635 5632 5629 5626 5623 5619 5616 5613 5609 5605 5600 5595 5589 5583 5578 5572 5566 5560 5554 5548 5542
5675 5673 5671 5669 5667 5664 5662 5659 5657 5654 5651 5649 5646 5643 5640 5637 5634 5631 5628 5626 5623 5620 5617 5614 5610 5606 5601 5597 5592 5586 5581 5575 5569 5563 5557 5551 5545 5539
5670 5668 5666 5664 5662 5659 5657 5655 5652 5650 5647 5645 5642 5639 5636 5633 5631 5628 5626 5623 5620 5618 5614 5611 5608 5604 5600 5595 5590 5584 5579 5573 5567 5561 5555 5549 5543 5537
5665 5663 5662 5660 5658 5656 5653 5651 5649 5646 5644 5641 5639 5636 5633 5631 5628 5626 5623 5621 5619 5616 5613 5610 5606 5602 5598 5593 5588 5583 5578 5572 5566 5560 5554 5548 5542 5536
5662 5660 5658 5656 5654 5652 5650 5648 5646 5643 5641 5639 5636 5634 5631 5629 5627 5624 5622 5619 5617 5615 5612 5608 5605 5601 5597 5592 5588 5582 5577 5571 5566 5560 5554 5548 5542 5536
5659 5657 5656 5654 5652 5650 5647 5645 5643 5641 5638 5636 5634 5632 5629 5627 5625 5623 5621 5618 5616 5614 5611 5608 5604 5601 5597 5592 5588 5582 5577 5572 5566 5561 5555 5549 5544 5538
5657 5655 5653 5651 5649 5647 5645 5643 5641 5638 5636 5634 5632 5630 5628 5626 5624 5622 5620 5618 5616 5613 5610 5607 5604 5601 5597 5593 5589 5584 5579 5573 5568 5563 5557 5552 5546 5541
5654 5652 5650 5648 5646 5644 5642 5640 5638 5636 5634 5633 5631 5629 5627 5625 5623 5621 5620 5618 5616 5613 5611 5608 5605 5602 5598 5594 5591 5586 5581 5576 5571 5565 5560 5555 5550 5545
5652 5650 5648 5646 5644 5642 5640 5638 5637 5635 5633 5631 5629 5628 5626 5624 5623 5621 5620 5618 5616 5614 5611 5609 5606 5603 5600 5596 5592 5588 5584 5579 5574 5569 5564 5559 5554 5549
5651 5649 5647 5645 5643 5641 5639 5637 5635 5633 5632 5630 5629 5627 5626 5624 5623 5622 5620 5619 5617 5615 5613 5610 5608 5605 5602 5598 5595 5591 5587 5582 5578 5573 5568 5563 5558 5553
5649 5647 5645 5643 5641 5640 5638 5636 5634 5633 5631 5630 5629 5627 5626 5625 5624 5623 5621 5620 5618 5616 5614 5612 5610 5607 5604 5601 5598 5594 5590 5586 5582 5577 5573 5568 5564 5559
5649 5647 5645 5643 5641 5639 5637 5636 5634 5633 5631 5630 5629 5628 5627 5626 5625 5624 5623 5622 5620 5619 5617 5615 5612 5610 5607 5604 5601 5597 5594 5590 5586 5582 5578 5573 5569 5564